Flag for U.S.A. Weather past 2 weeks in McAllen, Texas, U.S.A.

Now
65 °F

Overcast.


Feels Like: 65 °F
Forecast: 62 / 77 °F
Wind: 7 mph from East

Location: Miller International Airport

Current Time: Jan 30, 2015 at 10:45:52 PM

Latest Report: Jan 30, 2015 at 9:53 PM


Visibility: 10 mi

Pressure: 30.20 "Hg

Humidity: 87%

Dew point: 61 °F

Location of McAllenLocation

Historic Weather in McAllen — Graph

°F

McAllen temperature yesterday

Maximum temperature yesterday: 79 °F (at 2:53 PM)
Minimum temperature yesterday: 58 °F (at 1:53 AM)
Average temperature yesterday: 67 °F

Past Weeks' High & Low Weather Summary

 TemperatureHumidityPressure
High83 °F (Jan 20, 3:53 PM)100% (Jan 19, 8:01 AM)30.41 "Hg (Jan 19, 8:01 AM)
Low39 °F (Jan 24, 4:53 AM)22% (Jan 26, 3:53 PM)29.87 "Hg (Jan 20, 3:53 PM)
Average60 °F73%30.16 "Hg
* Reported Jan 15 8:53 PM — Jan 30 8:53 PM, McAllen, Weather by CustomWeather, © 2014

Note: Actual official high and low records may vary slightly from our data, if they occured in-between our weather recording intervals... More about our weather records

Advertising

McAllen weather history for previous 24 hours

 ConditionsComfort  
Time TempWeatherWind HumidityBarometerVisibility
8:53 PM
Jan 30
65 °FPassing clouds.7 mph87%30.21 "Hg10 mi
7:53 PM67 °FPassing clouds.9 mph81%30.20 "Hg10 mi
6:53 PM68 °FPassing clouds.14 mph76%30.19 "Hg10 mi
5:53 PM69 °FBroken clouds.16 mph73%30.19 "Hg10 mi
4:53 PM70 °FPartly sunny.18 mph68%30.19 "Hg10 mi
3:53 PM71 °FScattered clouds.17 mph63%30.18 "Hg10 mi
2:53 PM72 °FMostly cloudy.15 mph61%30.20 "Hg10 mi
1:53 PM72 °FOvercast.15 mph61%30.22 "Hg10 mi
12:53 PM71 °FPassing clouds.16 mph63%30.27 "Hg10 mi
11:53 AM71 °FScattered clouds.14 mph66%30.30 "Hg10 mi
10:53 AM65 °FLow clouds.13 mph85%30.32 "Hg10 mi
9:53 AM63 °FFog.12 mph90%30.33 "Hg5 mi
9:03 AM63 °FFog.9 mph97%30.33 "Hg1 mi
8:53 AM64 °FFog.8 mph94%30.32 "Hg2 mi
8:02 AM63 °FFog.8 mph97%30.31 "Hg1 mi
7:53 AM63 °FFog.7 mph97%30.30 "Hg1 mi
6:53 AM63 °FFog.6 mph93%30.29 "Hg6 mi
5:53 AM62 °FFog.6 mph93%30.27 "Hg6 mi
4:53 AM62 °FFog.6 mph93%30.27 "Hg5 mi
3:53 AM63 °FClear.6 mph93%30.26 "Hg10 mi
2:53 AM64 °FPassing clouds.7 mph94%30.26 "Hg10 mi
1:53 AM64 °FClear.7 mph94%30.26 "Hg10 mi
12:53 AM65 °FPassing clouds.8 mph91%30.26 "Hg10 mi
11:53 PM
Jan 29
65 °FPassing clouds.9 mph87%30.27 "Hg10 mi
10:53 PM65 °FClear.6 mph87%30.27 "Hg10 mi
Weather by CustomWeather, © 2014

See weather overviewHow to use our weather pages